Regional Weather Roundup
Issued by NWS

Home | Current Version | Previous Version | Text Only | Print | Product List | Glossary Off
Versions: 1 2 3 4 5 6 7 8 9 10 11 12 13 14 15 16 17 18 19 20 21 22 23 24 25 26 27 28 29 30 31 32 33 34 35 36 37 38 39 40 41 42 43 44 45 46 47 48 49 50

000
ASUS45 KPSR 272110
RWRAZ

ARIZONA REGIONAL HOURLY WEATHER ROUNDUP
NATIONAL WEATHER SERVICE PHOENIX AZ
200 PM MST SAT DEC 27 2014

NOTE: FAIR INDICATES FEW OR NO CLOUDS BELOW 12,000 FEET WITH NO
SIGNIFICANT WEATHER AND/OR OBSTRUCTIONS TO VISIBILITY.

AZZ001>003-036-272200-
NORTHWEST ARIZONA

CITY           SKY/WX    TMP DP  RH WIND       PRES   REMARKS
BULLHEAD CITY  SUNNY     54  12  19 NW21      30.35F
KINGMAN        SUNNY     44  10  25 N5        30.29F
$$

AZZ004>008-015-016-018-272200-
NORTH CENTRAL ARIZONA

CITY           SKY/WX    TMP DP  RH WIND       PRES   REMARKS
GRAND CANYON   SUNNY     30   5  34 VRB3      30.22F
PRESCOTT       SUNNY     39   9  29 NE3       30.23F
FLAGSTAFF      SUNNY     29  10  45 E8G17     30.19S WCI  21
PAYSON         SUNNY     39   9  28 E8G14     30.21F WCI  34
PAGE           SUNNY     36   8  31 NW5       30.28F WCI  32
$$

AZZ009>014-017-272200-
NORTHEAST ARIZONA

CITY           SKY/WX    TMP DP  RH WIND       PRES   REMARKS
WINSLOW        MOSUNNY   37  13  37 N6        30.26F WCI  32
SAINT JOHNS    SUNNY     34  10  37 VRB3      30.20F
WINDOW ROCK    SUNNY     29   9  43 CALM      30.19F
SHOW LOW         N/A     30   5  34 N12G17    30.21S WCI  21
$$

AZZ023-272200-
GREATER PHOENIX AREA

CITY           SKY/WX    TMP DP  RH WIND       PRES   REMARKS
PHOENIX        SUNNY     56  19  23 W6        30.23F
BUCKEYE          N/A     55  16  21 W3        30.27S
GLENDALE       SUNNY     57  19  23 CALM      30.26F
LUKE AFB       SUNNY     57  17  20 W5        30.24F
DEER VALLEY    SUNNY     57  12  17 VRB5      30.23S
SCOTTSDALE     SUNNY     57  11  16 NE3       30.24F
MESA-FALCON    SUNNY     54  16  22 VRB5      30.22F
MESA-GATEWAY   SUNNY     55  16  21 VRB5      30.24F
CHANDLER       SUNNY     57  19  23 SW7G14    30.23F
$$

AZZ027-028-272200-
SOUTHWEST MARICOPA COUNTY AND PINAL COUNTY

CITY           SKY/WX    TMP DP  RH WIND       PRES   REMARKS
CASA GRANDE    SUNNY     54  19  26 CALM      30.24F
GILA BEND      FAIR      55  20  25 NW6       30.28F
$$

AZZ503-504-507>509-272200-
SOUTHEAST ARIZONA

CITY           SKY/WX    TMP DP  RH WIND       PRES   REMARKS
TUCSON         SUNNY     46  19  34 NW5       30.21F
DAVIS-MONTHAN  SUNNY     48  17  29 NW7       30.19S
RYAN FIELD       N/A     54  27  35 W8        30.22F
NOGALES        SUNNY     50   8  18 N10G17    30.14F
SIERRA VISTA   SUNNY     43   8  23 CALM      30.15S
DOUGLAS        SUNNY     46  15  28 VRB5      30.14F
SAFFORD        SUNNY     47  14  26 CALM      30.19F
$$

AZZ020-021-025-026-031-272200-
SOUTHWEST ARIZONA

CITY           SKY/WX    TMP DP  RH WIND       PRES   REMARKS
YUMA           SUNNY    N/A N/A N/A N8        30.31F
$$

CAZ031-033-041-043-047-048-061-272200-
SOUTHERN CALIFORNIA

CITY           SKY/WX    TMP DP  RH WIND       PRES   REMARKS
DOWNTOWN L.A.  SUNNY     63  18  17 VRB3      30.27F
L.A. AIRPORT   MOSUNNY   59  18  20 W10       30.28F
SAN DIEGO      PTSUNNY   60  14  16 SW9       30.28F
BURBANK        SUNNY     59  14  17 SE3       30.26F
ONTARIO        MOSUNNY   60  14  16 W3        30.27F
RIVERSIDE      SUNNY     60   7  12 NE9G16    30.28F
PALM SPRINGS   SUNNY     58   5  12 VRB3      30.35F
EL CENTRO NAS  MOSUNNY   60  10  14 NW14      30.34F
IMPERIAL       SUNNY     59  11  15 NW10      30.33F
BLYTHE         SUNNY     58  11  15 N13       30.31F
NEEDLES        SUNNY     55   9  16 NE16G22   30.34F
$$

NVZ020-UTZ003-272200-
SOUTHERN NEVADA-UTAH

CITY           SKY/WX    TMP DP  RH WIND       PRES   REMARKS
LAS VEGAS      PTSUNNY   47   6  18 N7        30.30F
SALT LAKE CITY CLOUDY    27  15  61 S8        30.31F WCI  19
$$

NMZ009-TXZ055-272200-
NEW MEXICO-WEST TEXAS

CITY           SKY/WX    TMP DP  RH WIND       PRES   REMARKS
ALBUQUERQUE    MOSUNNY   36  11  35 SW9       30.20S WCI  29
EL PASO        PTSUNNY   43  32  65 NW10      30.16F
$$


........................KEY........................
SKY/WX - SKY CONDITION/WEATHER
TMP    - TEMPERATURE IN FAHRENHEIT
DP     - DEW POINT IN FAHRENHEIT
RH     - RELATIVE HUMIDITY IN PERCENT
WIND   - DIRECTION AND SPEED IN MILES PER HOUR (MPH)
VRB    - VARIABLE WIND DIRECTION
PRES   - MEAN SEA LEVEL PRESSURE IN INCHES OF MERCURY
         F - FALLING PRESSURE   R - RISING PRESSURE
         S - STEADY PRESSURE
VSB    - VISIBILITY IN MILES
HX     - HEAT INDEX IN FAHRENHEIT
WCI    - WIND CHILL INDEX IN FAHRENHEIT
TC     - TEMPERATURE IN CELSIUS WHICH IS ALSO KNOWN AS
         TEMPERATURE IN CENTIGRADE
AFB    - AIR FORCE BASE
         LUKE AFB IS LUKE AIR FORCE BASE
         DAVIS-MONTHAN IS DAVIS-MONTHAN AIR FORCE BASE
NAS    - NAVAL AIR STATION
         EL CENTRO NAS IS EL CENTRO NAVAL AIR STATION
N/A    - NOT AVAILABLE



USA.gov is the U.S. government's official web portal to all federal, state and local government web resources and services.